Simultaneous Nadir Overpasses (SNOs) Predictions

Prediction of SNOs between TERRA and METOP-C Satellite Orbit:

Table of predicted SNOs for the next 14.0 days since TLE Epoch: 4/20/2024
Index Date (TERRA) Time (TERRA) Lat,Lon (TERRA) SZA (TERRA ) Date (METOP-C) Time (METOP-C) Lat,Lon (METOP-C) SZA (METOP-C ) Distance(km) Time Diff (sec)
1 04/20/2024 16:31:10 -78.67, 124.44 112.96 04/20/2024 16:30:27 -78.68, 124.48 112.96 1.06 43
2 04/20/2024 17:20:24 78.99, -66.18 67.42 04/20/2024 17:20:59 79.00, -66.10 67.44 1.88 35
3 04/23/2024 07:51:28 78.78, 74.87 66.29 04/23/2024 07:51:24 78.78, 74.88 66.30 0.56 4
4 04/23/2024 08:40:06 -80.42,-106.02 111.49 04/23/2024 08:41:20 -80.23,-105.43 111.58 23.10 74
5 04/25/2024 22:22:31 78.58,-143.97 65.20 04/25/2024 22:21:49 78.58,-143.96 65.20 0.34 42
6 04/25/2024 23:11:45 -78.89, 25.34 114.43 04/25/2024 23:12:22 -78.88, 25.25 114.44 2.24 37
7 04/28/2024 13:42:47 -78.66, 166.37 115.53 04/28/2024 13:42:47 -78.66, 166.28 115.54 2.17 0
8 05/01/2024 04:13:46 -78.50, -52.26 116.52 05/01/2024 04:13:10 -78.49, -52.30 116.54 0.96 36
9 05/01/2024 05:03:00 78.79, 116.95 63.83 05/01/2024 05:03:43 78.78, 116.84 63.83 2.77 43
10 05/03/2024 18:44:43 -78.34, 89.22 117.48 05/03/2024 18:43:32 -78.34, 89.28 117.48 1.41 71



Historial Predications of SNOs between TERRA and METOP-C
